Waarnemingen

Advertentie
Mijn weer
Brignogan, Frankrijk (7107): temperatuur & dauwpunt: 14.10.2017 08:00:00 - 20.10.2017 08:00:00 (CEST)Brignogan, Frankrijk (7107): windsnelheid & windstoten: 14.10.2017 08:00:00 - 20.10.2017 08:00:00 (CEST)Brignogan, Frankrijk (7107): windrichting: 14.10.2017 08:00:00 - 20.10.2017 08:00:00 (CEST)Brignogan, Frankrijk (7107): luchtdruk: 14.10.2017 08:00:00 - 20.10.2017 08:00:00 (CEST)Brignogan, Frankrijk (7107): zicht: 14.10.2017 08:00:00 - 20.10.2017 08:00:00 (CEST)Brignogan, Frankrijk (7107): neerslag: 14.10.2017 08:00:00 - 20.10.2017 08:00:00 (CEST)
Datum & Tijd tt [°C] td [°C] ff [km/u] ff [kn] fx [km/u] fx [kn] dd ppp [hPa] vv [km] rr [mm]
20.10.2017 08:00:00 11,5 7,6 11 6 44 24 ZZW 1010,5 - 0,0
20.10.2017 07:00:00 13,2 8,9 29 16 51 28 W 1010,0 - 0,0
20.10.2017 06:00:00 13,3 8,8 36 19 53 28 W 1009,4 - 0,0
20.10.2017 05:00:00 13,3 8,1 37 20 61 33 W 1008,8 - 0,0
20.10.2017 04:00:00 13,3 8,8 41 22 61 33 W 1008,2 - 0,0
20.10.2017 03:00:00 13,4 8,2 37 20 59 32 W 1007,4 - 0,0
20.10.2017 02:00:00 13,0 8,9 40 22 66 36 W 1007,0 - 0,0
20.10.2017 01:00:00 13,3 9,0 40 21 63 34 W 1006,1 - 0,0
20.10.2017 00:00:00 13,2 8,9 42 23 70 38 W 1005,2 - 0,0
19.10.2017 23:00:00 13,3 9,5 39 21 61 33 W 1004,4 - 0,0
19.10.2017 22:00:00 13,4 10,0 39 21 61 33 W 1003,4 - 0,0
19.10.2017 21:00:00 12,6 9,8 41 22 71 39 W 1002,5 - 0,4
19.10.2017 20:00:00 13,5 10,7 39 21 84 46 W 1001,1 12 0,0
19.10.2017 19:00:00 14,3 11,8 42 23 76 41 WZW 1000,0 - 0,0
19.10.2017 18:00:00 14,8 13,0 35 19 61 33 WZW 998,7 - 1,8
19.10.2017 17:00:00 15,1 14,0 36 19 74 40 Z 998,3 5 2,9
19.10.2017 16:00:00 15,1 13,6 39 21 73 39 Z 999,1 - 3,2
19.10.2017 15:00:00 16,1 12,6 40 22 75 40 Z 1000,2 - 0,2
19.10.2017 14:00:00 16,8 12,9 35 19 63 34 Z 1001,4 22 0,0
19.10.2017 13:00:00 15,7 12,8 31 17 54 29 Z 1002,6 - 0,0
19.10.2017 12:00:00 15,2 13,0 23 12 37 20 Z 1003,4 - 0,0
19.10.2017 11:00:00 14,3 12,8 21 11 35 19 Z 1004,1 16 0,0
19.10.2017 10:00:00 13,0 11,9 18 10 30 16 Z 1004,4 - 0,0
19.10.2017 09:00:00 11,7 10,4 11 6 18 10 Z 1004,4 - 0,0
19.10.2017 08:00:00 11,6 10,5 9 5 19 10 Z 1004,3 20 0,0
19.10.2017 07:00:00 11,6 10,5 14 8 19 10 ZZW 1005,2 - 0,0
19.10.2017 06:00:00 11,4 10,1 12 7 17 9 Z 1005,8 - 0,0
19.10.2017 05:00:00 11,5 9,9 13 7 19 10 WZW 1006,6 - 0,0
19.10.2017 04:00:00 12,2 10,9 8 5 12 6 WZW 1006,9 - 0,0
19.10.2017 03:00:00 12,3 10,7 3 1 19 10 ZO 1007,6 - 0,0
19.10.2017 02:00:00 12,9 11,6 13 7 21 11 OZO 1007,7 - 0,0
19.10.2017 01:00:00 12,9 11,5 8 5 13 7 OZO 1008,6 - 0,0
19.10.2017 00:00:00 12,9 11,0 5 3 22 12 ZO 1009,5 - 0,0
18.10.2017 23:00:00 13,1 11,8 5 3 13 7 OZO 1009,5 - 0,0
18.10.2017 22:00:00 13,7 12,4 4 2 9 5 NO 1009,6 - 0,0
18.10.2017 21:00:00 14,3 12,7 4 2 14 8 OZO 1009,8 - 0,0
18.10.2017 20:00:00 14,7 13,2 12 7 16 9 O 1009,9 20 0,0
18.10.2017 19:00:00 15,3 12,4 5 3 11 6 N 1009,6 - 0,0
18.10.2017 18:00:00 18,0 12,0 8 4 15 8 WZW 1009,4 - 0,0
18.10.2017 17:00:00 18,5 12,7 9 5 17 9 Z 1009,5 22 0,0
18.10.2017 16:00:00 18,9 12,4 9 5 21 11 ZW 1009,6 - 0,0
18.10.2017 15:00:00 19,2 13,1 11 6 25 14 ZZW 1009,8 - 0,0
18.10.2017 14:00:00 18,6 12,8 11 6 24 13 ZZW 1010,4 20 0,0
18.10.2017 13:00:00 18,2 13,5 10 6 21 11 Z 1010,5 - 0,0
18.10.2017 12:00:00 17,4 13,3 13 7 20 11 ZZO 1010,6 - 0,0
18.10.2017 11:00:00 15,9 13,0 10 6 19 10 Z 1010,6 18 0,0
18.10.2017 10:00:00 13,6 12,0 14 7 17 9 Z 1010,6 - 0,0
18.10.2017 09:00:00 12,1 11,0 13 7 16 9 ZZO 1010,2 - 0,0
18.10.2017 08:00:00 12,6 11,5 12 6 15 8 Z 1010,1 20 0,0
18.10.2017 07:00:00 12,7 11,6 12 6 15 8 Z 1010,3 - 0,0
18.10.2017 06:00:00 12,9 11,6 11 6 22 12 ZZW 1010,5 - 0,0
18.10.2017 05:00:00 13,5 12,2 15 8 23 13 ZW 1010,8 - 0,0
18.10.2017 04:00:00 14,2 13,1 10 6 19 10 ZZW 1010,9 - 0,0
18.10.2017 03:00:00 14,3 13,2 12 6 18 10 Z 1011,1 - 0,0
18.10.2017 02:00:00 13,4 12,1 6 3 13 7 OZO 1011,5 - 0,0
18.10.2017 01:00:00 13,3 11,7 7 4 17 9 OZO 1012,0 - 0,2
18.10.2017 00:00:00 13,6 11,6 8 5 22 12 OZO 1012,5 - 0,0
17.10.2017 23:00:00 14,0 11,9 18 10 29 16 O 1012,9 - 0,0
17.10.2017 22:00:00 13,8 11,8 19 11 41 22 O 1013,0 - 0,0
17.10.2017 21:00:00 13,7 11,9 34 18 58 31 O 1013,6 - 0,4
17.10.2017 20:00:00 13,7 12,3 32 17 48 26 O 1014,1 8 1,4
17.10.2017 19:00:00 13,5 11,9 39 21 53 29 ONO 1014,3 - 1,4
17.10.2017 18:00:00 13,1 11,3 40 21 47 26 ONO 1014,9 - 1,8
17.10.2017 17:00:00 13,3 11,4 34 19 46 25 ONO 1015,8 6 1,6
17.10.2017 16:00:00 13,1 10,6 34 18 39 21 ONO 1016,2 - 0,9
17.10.2017 15:00:00 12,7 10,6 23 13 29 15 ONO 1017,2 - 0,6
17.10.2017 14:00:00 12,2 9,9 16 9 33 18 O 1019,0 - 1,6
17.10.2017 13:00:00 12,2 9,9 20 11 28 15 OZO 1019,1 - 1,8
17.10.2017 12:00:00 12,7 10,1 13 7 19 11 OZO 1019,7 - 1,2
17.10.2017 11:00:00 13,3 9,4 5 3 17 9 OZO 1020,2 18 0,0
17.10.2017 10:00:00 13,1 9,7 7 4 16 9 ZO 1020,2 - 0,0
17.10.2017 09:00:00 12,3 9,7 6 3 15 8 ZO 1020,0 - 0,0
17.10.2017 08:00:00 12,0 9,7 5 3 12 7 ZO 1019,9 20 0,0
17.10.2017 07:00:00 11,8 9,5 11 6 15 8 ZZO 1020,3 - 0,0
17.10.2017 06:00:00 11,4 9,3 10 6 17 9 ZZO 1020,7 - 0,0
17.10.2017 05:00:00 10,9 8,8 13 7 16 9 Z 1021,1 - 0,0
17.10.2017 04:00:00 10,6 8,5 14 8 17 9 Z 1021,6 - 0,0
17.10.2017 03:00:00 11,2 8,9 11 6 21 11 ZZO 1022,0 - 0,0
17.10.2017 02:00:00 10,7 8,6 15 8 19 10 Z 1022,3 - 0,0
17.10.2017 01:00:00 10,9 8,5 15 8 24 13 ZZW 1022,2 - 0,0
17.10.2017 00:00:00 11,1 8,5 16 9 23 12 Z 1022,2 - 0,0
16.10.2017 23:00:00 11,5 8,5 13 7 23 13 ZZW 1022,0 - 0,0
16.10.2017 22:00:00 12,1 8,8 14 8 23 13 Z 1021,4 - 0,0
16.10.2017 21:00:00 12,8 8,7 14 8 25 13 ZZW 1021,1 - 0,0
16.10.2017 20:00:00 14,0 8,8 13 7 46 25 ZZW 1020,4 15 0,0
16.10.2017 19:00:00 15,6 9,0 27 15 58 31 ZW 1019,5 - 0,0
16.10.2017 18:00:00 16,8 8,7 39 21 76 41 WZW 1018,4 - 0,0
16.10.2017 17:00:00 17,8 9,4 40 22 69 37 ZW 1017,9 15 0,0
16.10.2017 16:00:00 18,0 8,8 46 25 83 45 ZW 1017,4 - 0,0
16.10.2017 15:00:00 18,5 10,1 37 20 82 45 ZW 1017,1 - 0,0
16.10.2017 14:00:00 18,9 10,7 32 18 72 39 ZW 1016,6 18 0,0
16.10.2017 13:00:00 18,9 11,2 32 17 71 38 ZW 1016,3 - 0,0
16.10.2017 12:00:00 18,2 11,5 40 21 72 39 ZW 1015,3 - 0,0
16.10.2017 11:00:00 17,9 12,1 26 14 59 32 ZZW 1014,3 4,0 0,0
16.10.2017 10:00:00 18,6 14,5 28 15 61 33 ZZW 1013,2 - 0,0
16.10.2017 09:00:00 19,9 14,9 33 18 66 36 Z 1012,2 - 0,0
16.10.2017 08:00:00 20,9 14,8 35 19 62 34 Z 1011,2 25 0,0
16.10.2017 07:00:00 20,9 14,8 40 22 68 37 Z 1010,5 - 0,0
16.10.2017 06:00:00 21,3 14,7 32 17 51 28 ZZO 1009,7 - 0,0
16.10.2017 05:00:00 20,3 14,9 27 15 48 26 ZZO 1010,8 - 0,0
16.10.2017 04:00:00 20,6 14,7 30 16 65 35 ZZO 1011,8 - 0,0
16.10.2017 03:00:00 21,3 14,2 35 19 61 33 Z 1014,5 - 0,0
16.10.2017 02:00:00 20,7 12,7 35 19 55 30 ZZO 1013,3 - 0,0
16.10.2017 01:00:00 20,1 13,3 27 15 52 28 ZZO 1014,1 - 0,0
16.10.2017 00:00:00 19,6 13,8 29 15 48 26 ZZO 1014,4 - 0,0
15.10.2017 23:00:00 20,1 14,0 31 17 45 24 Z 1014,8 - 0,0
15.10.2017 22:00:00 20,1 14,0 23 13 41 22 Z 1014,9 - 0,0
15.10.2017 21:00:00 19,9 14,5 19 11 36 19 Z 1014,9 - 0,0
15.10.2017 20:00:00 20,3 14,6 26 14 44 24 Z 1015,1 10 0,0
15.10.2017 19:00:00 21,3 14,7 23 12 44 24 Z 1014,7 - 0,0
15.10.2017 18:00:00 22,2 14,3 24 13 50 27 Z 1014,9 - 0,0
15.10.2017 17:00:00 22,8 14,4 25 14 50 27 Z 1014,8 18 0,0
15.10.2017 16:00:00 24,5 14,6 24 13 50 27 Z 1015,1 - 0,0
15.10.2017 15:00:00 24,6 13,5 26 14 50 27 Z 1015,4 - 0,0
15.10.2017 14:00:00 23,2 13,1 21 12 37 20 Z 1015,9 15 0,0
15.10.2017 13:00:00 20,8 13,5 20 11 35 19 ZZO 1016,5 - 0,0
15.10.2017 12:00:00 18,8 13,6 22 12 36 19 ZZO 1017,3 - 0,0
15.10.2017 11:00:00 17,5 13,6 16 9 28 15 ZZO 1017,7 15 0,0
15.10.2017 10:00:00 16,0 13,3 7 4 17 9 ZO 1017,8 - 0,0
15.10.2017 09:00:00 15,2 12,7 13 7 29 16 Z 1017,9 - 0,0
15.10.2017 08:00:00 15,4 12,7 14 8 30 16 Z 1017,8 20 0,0
15.10.2017 07:00:00 15,6 12,7 19 10 30 16 Z 1018,1 - 0,0
15.10.2017 06:00:00 15,7 12,6 16 9 37 20 ZZW 1018,2 - 0,0
15.10.2017 05:00:00 15,9 13,2 17 9 39 21 ZZW 1018,5 - 0,0
15.10.2017 04:00:00 16,1 13,6 16 9 35 19 ZZW 1018,8 - 0,0
15.10.2017 03:00:00 16,5 14,5 22 12 38 21 Z 1019,1 - 0,0
15.10.2017 02:00:00 16,5 14,9 18 10 38 21 Z 1019,2 - 0,0
15.10.2017 01:00:00 16,6 15,0 15 8 28 15 Z 1019,2 - 0,0
15.10.2017 00:00:00 15,2 13,7 13 7 22 12 ZZO 1019,3 - 0,0
14.10.2017 23:00:00 14,1 12,8 11 6 15 8 Z 1019,7 - 0,0
14.10.2017 22:00:00 14,4 13,3 6 3 14 8 Z 1020,0 - 0,0
14.10.2017 21:00:00 15,2 14,2 10 5 20 11 O 1020,4 - 0,0
14.10.2017 20:00:00 15,3 14,2 16 9 25 14 ONO 1020,8 3,0 0,0
14.10.2017 19:00:00 15,7 14,2 21 11 32 18 O 1021,1 - 0,0
14.10.2017 18:00:00 16,2 14,0 25 13 32 17 ONO 1021,6 - 0,0
14.10.2017 17:00:00 16,8 14,1 23 12 29 16 ONO 1022,0 6 0,0
14.10.2017 16:00:00 17,0 13,9 26 14 32 17 ONO 1022,6 - 0,0
14.10.2017 15:00:00 17,4 13,9 17 9 25 13 ONO 1023,0 - 0,0
14.10.2017 14:00:00 16,8 13,3 23 12 27 15 O 1023,7 20 0,0
14.10.2017 13:00:00 17,6 13,5 15 8 18 10 ONO 1025,0 - 0,0
14.10.2017 12:00:00 17,7 13,6 10 5 12 6 ONO 1025,5 - 0,0
14.10.2017 11:00:00 17,2 13,7 6 4 14 8 O 1025,5 8 0,0
14.10.2017 10:00:00 15,2 13,4 7 4 18 10 ZZO 1025,2 - 0,0
14.10.2017 09:00:00 14,6 13,1 8 4 18 10 Z 1025,3 - 0,0
14.10.2017 08:00:00 14,7 13,4 11 6 18 10 Z 1025,1 10 0,0

tt = temperatuur
td = dauwpunt
ff = windsnelheid
fx = windstoten
dd = windrichting
ppp = luchtdruk
vv = zicht
rr = neerslag

Weerstations in de omgeving